FENGYUN 2G

Satellite information

Favourite Embed

Satellite Type and Status

PAYLOADIN ORBIT

Key statistics

Satellite FENGYUN 2G at a glance.

Uptime

3954

Days in orbit

Revolutions

≈ 1.0

Per day

Orbit

OTHER

Other

Inclination

5.0

Latest

Satellite identification and parameters

Extended collection of information and parameters for FENGYUN 2G.

Object identification

Identified? True

Debris? False

Object name: FENGYUN 2G

International designator: 2014-090A

Object number (NORAD): 40367

Object ID (CCSDS): 40367

Country: PEOPLES REPUBLIC OF CHINA (PRC)

Current information (Y/N): Y

RCS size: LARGE

Orbital parameters

Period: 1436.244 minutes

Inclination: 5.0484 deg

SMA: 42167.604 km

Apoapsis: 35805.418 km

Periapsis: 35773.52 km

RAAN: 75.6293 deg

Eccentricy: 0.00037823

Argument of periapsis: 182.279 deg

Mean anomaly: 209.3298 deg

Mean motion: 1.00261541 rev/day

Mean motion (dot): -0.00000285 rev/day2

B* drag term: 0.0 1/REarth

Two-line elements (TLE)

Creation date: Oct. 28, 2025, 2:18 a.m.

Reference frame: TEME

Reference center: EARTH

Epoch: Oct. 27, 2025, 10:06 p.m. UTC

TLE line 0: 0 FENGYUN 2G

TLE line 1: 1 40367U 14090A 25300.92088932 -.00000285 00000-0 00000-0 0 9991

TLE line 2: 2 40367 5.0484 75.6293 0003782 182.2790 209.3298 1.00261541 39672

Live tracking on map

Real-time ground track for satellite FENGYUN 2G.

In-orbit conjunctions

There are no conjunctions computed for FENGYUN 2G, at the moment. Check back to stay up to date, as we update our databases every day.

Go to all conjunctions

Associated space launch

FENGYUN 2G was lifted into orbit during the mission ‘Long March 3A | Fengyun 2-08’, on board a Long March 3A space rocket.

The launch took place on Dec. 31, 2014, 1:02 a.m. from Launch Complex 2 (LC-2).

For more information about the launch, click the button.

Launch to space Long March 3A | Fengyun 2-08
Long March 3A | Fengyun 2-08

Agency: N/A

Status: Launch Successful

Launch date: Dec. 31, 2014, 1:02 a.m. UTC

Rocket: Long March 3A

Launch pad: Launch Complex 2 (LC-2)

Location: Xichang Satellite Launch Center, People's Republic of China

...

Latest news about this satellite

There are no fresh news available about this satellite. Check back as we update our databases every day.


Newsletter sign-up

Weekly statistics, charts and insights to help you stay on top of the space industry.